Location: Stigler
(35.2540°N, 95.1230°W)
Time: 18:52:34
(UTC-06:00)

ALOS - Pass Details

Date: 26 September 2017
Orbit: 683 x 687 km, 97.8° (Epoch: 14 December)

Event Time Altitude Azimuth Distance (km) Brightness Sun altitude
Rises 19:32:13 0° 152° (SSE) 3,032 5.3 -5.2°
Reaches altitude 10° 19:34:31 10° 147° (SSE) 2,121 4.5 -5.6°
Maximum altitude 19:38:57 48° 74° (ENE) 899 2.5 -6.5°
Drops below altitude 10° 19:43:26 10° 1° (N) 2,136 4.9 -7.4°
Sets 19:45:45 0° 355° (N) 3,056 5.7 -7.9°
